Location: C�an Torras
(41.5052°N, 1.9280°E)
Time: 01:34:10
(UTC+00:00)

H-2A R/B - Pass Details

Date: 20 January 2021
Orbit: 734 x 836 km, 98.2° (Epoch: 08 March)

Event Time Altitude Azimuth Distance (km) Brightness Sun altitude
Rises 19:49:08 0° 204° (SSW) 3,160 5.5 -32.6°
Reaches altitude 10° 19:51:58 10° 221° (SW) 2,253 4.8 -33.2°
Maximum altitude 19:55:33 20° 268° (W) 1,700 4.4 -33.8°
Drops below altitude 10° 19:59:12 10° 315° (NW) 2,303 5.0 -34.5°
Sets 20:02:10 0° 332° (NNW) 3,254 5.6 -35.1°
